Flag for Germany Weather past 2 weeks in Schleswig, Schleswig-Holstein, Germany

Now
64 °F

Clear.


Feels Like: 64 °F
Forecast: 60 / 74 °F
Wind: 3 mph from Northwest

Location: Schleswig

Current Time: Jul 30, 2014 at 1:26:08 AM

Latest Report: Jul 30, 2014 at 1:00 AM


Visibility: 19 mi

Pressure: 29.80 "Hg

Humidity: 77%

Dew point: 57 °F

Location of SchleswigLocation

Historic Weather in Schleswig — Graph

°F

Schleswig temperature yesterday

Maximum temperature yesterday: 81 °F (at 7:00 PM)
Minimum temperature yesterday: 65 °F (at 2:00 AM)
Average temperature yesterday: 72 °F

Past Weeks' High & Low Weather Summary

 TemperatureHumidityPressure
High83 °F (Jul 19, 2:00 PM)98% (Jul 16, 5:00 AM)30.23 "Hg (Jul 16, 5:00 AM)
Low51 °F (Jul 17, 5:00 AM)30% (Jul 22, 2:00 PM)29.80 "Hg (Jul 29, 7:00 PM)
Average70 °F69%30.03 "Hg
* Reported Midnight between Jul 14 and Jul 15 — Midnight between Jul 29 and Jul 30, Schleswig, Weather by CustomWeather, © 2014

Note: Actual official high and low records may vary slightly from our data, if they occured in-between our weather recording intervals... More about our weather records

Advertising

Schleswig weather history for previous 24 hours

 ConditionsComfort  
Time TempWeatherWind HumidityBarometerVisibility
12:00 AM
Jul 30
67 °FPassing clouds.3 mph72%29.81 "Hg19 mi
11:00 PM
Jul 29
69 °FPassing clouds.3 mph70%29.81 "Hg19 mi
10:00 PM71 °FPassing clouds.5 mph66%29.81 "Hg19 mi
9:00 PM75 °FScattered clouds.5 mph60%29.80 "Hg19 mi
8:00 PM80 °FScattered clouds.3 mph47%29.80 "Hg22 mi
7:00 PM81 °FScattered clouds.3 mph45%29.80 "Hg22 mi
6:00 PM81 °FScattered clouds.3 mph46%29.80 "Hg22 mi
4:00 PM81 °FPartly sunny.3 mph47%29.84 "Hg25 mi
3:00 PM81 °FScattered clouds.2 mph47%29.85 "Hg19 mi
2:00 PM81 °FPassing clouds.3 mph48%29.86 "Hg19 mi
1:00 PM79 °FPassing clouds.3 mph50%29.87 "Hg19 mi
12:00 PM77 °FPassing clouds.3 mph56%29.88 "Hg16 mi
11:00 AM76 °FPassing clouds.5 mph64%29.88 "Hg12 mi
10:00 AM73 °FScattered clouds.5 mph73%29.89 "Hg11 mi
9:00 AM70 °FOvercast.5 mph81%29.91 "Hg6 mi
8:00 AM69 °FFog.2 mph90%29.90 "Hg2 mi
7:00 AM66 °FFog.3 mph95%29.90 "Hg1 mi
6:00 AM65 °FFog.3 mph96%29.89 "Hg2 mi
5:00 AM66 °FFog.3 mph93%29.90 "Hg2 mi
4:00 AM65 °FFog.3 mph92%29.90 "Hg3 mi
3:00 AM66 °FClear.3 mph89%29.90 "Hg5 mi
2:00 AM65 °FClear.2 mph89%29.92 "Hg5 mi
1:00 AM65 °FClear.2 mph90%29.92 "Hg6 mi
Weather by CustomWeather, © 2014

See weather overviewHow to use our weather pages